RH
36 36 36 35 35 38 44 50 58 67 72 72 70 67 65 65 65 65 64 63 62 61 60 60 60 60 59 59 58 57 56 57 57 58 60 63 68 75 82 86 88 89 88 88 87 86 85 83 82 81 82 85 88 89 87 83 82 82 83 86 86 85 88 90 93 96 97 96 94 91 86 82 80 78 78 78 78 78 77 76 74 73 74 75 75 76
42 39 38 39 41 46 54 59 63 65 65 63 63 63 64 65 66 66 65 64 63 63 62 62 62 62 62 62 62 62 63 65 66 67 67 69 72 77 82 85 86 85 84 86 87 87 88 86 84 82 83 86 86 84 80 80 82 84 85 89 89 90 92 96 97 97 95 92 88 85 83 81 80 79 78 78 78 77 77 76 76 76 78 78 78 79
46 46 47 49 52 55 59 60 61 61 62 62 63 65 66 67 67 67 66 65 65 64 64 64 64 64 64 64 65 66 67 70 72 74 76 77 79 81 82 85 85 85 83 83 83 85 88 87 85 83 84 84 82 80 80 81 83 84 85 88 88 89 92 93 91 88 85 82 80 80 80 80 80 80 80 80 79 79 79 79 80 80 81 80 79 79
48 50 53 55 57 58 59 60 61 63 65 66 67 68 69 69 68 68 67 67 66 66 66 66 66 66 66 66 66 67 68 71 73 76 78 80 82 83 81 83 84 84 80 79 81 85 87 85 84 83 83 82 81 81 81 81 82 84 86 87 86 86 88 86 82 78 76 77 79 81 82 82 81 81 81 81 81 82 82 82 82 82 81 80 78 78
47 50 52 54 56 58 60 62 65 67 69 70 70 71 70 70 70 70 70 70 70 69 69 69 68 68 67 67 67 68 68 70 72 74 77 80 82 83 82 82 82 80 76 77 79 81 84 83 83 84 83 82 82 82 82 81 82 84 86 86 85 85 85 84 82 80 80 82 84 85 86 84 82 82 82 83 84 85 85 85 83 81 80 79 80 81
48 50 52 54 57 59 62 65 68 70 71 71 71 71 71 71 72 72 72 72 72 72 72 71 71 70 69 68 68 69 69 71 72 75 77 80 82 84 85 85 84 83 82 83 82 80 81 82 84 84 83 83 83 82 82 83 84 85 86 86 86 87 86 86 85 85 85 86 86 86 86 84 83 83 84 85 86 87 86 84 82 80 79 81 84 86
51 52 54 57 61 64 66 68 70 71 70 70 70 70 70 71 71 72 72 73 73 74 73 73 72 71 70 69 69 69 69 69 70 71 74 76 79 80 82 84 86 87 87 89 88 87 85 85 85 85 84 83 83 83 83 85 86 87 87 88 89 89 89 88 87 86 85 85 86 87 85 84 84 84 85 85 85 84 82 80 80 81 81 84 88 89
54 55 58 61 65 68 69 70 71 71 71 70 70 69 69 69 69 70 71 71 72 72 71 71 70 69 68 66 66 65 65 64 65 66 68 70 72 74 77 80 82 85 87 89 91 91 90 88 87 86 84 83 83 84 85 87 87 88 89 90 91 90 88 87 86 85 83 83 84 87 87 85 84 83 83 82 81 80 80 80 84 88 88 88 88 86
59 59 61 65 67 69 70 71 71 71 71 71 71 71 71 70 69 69 69 69 69 69 68 66 65 63 61 61 61 61 62 62 63 64 66 68 70 73 76 79 82 84 87 88 90 91 91 90 88 86 84 84 84 84 85 87 87 88 89 90 89 87 83 83 83 84 85 82 83 85 85 83 82 82 81 81 81 82 86 88 91 92 89 86 82 80
66 66 67 69 70 71 71 71 71 71 72 74 75 75 76 74 73 71 70 69 68 67 65 63 61 58 57 57 58 59 60 62 64 65 68 70 73 76 79 80 81 82 83 85 86 88 88 88 85 81 80 79 79 80 82 84 86 87 88 87 85 83 82 83 84 86 87 85 84 83 82 82 82 82 83 85 88 91 93 92 89 86 83 81 81 81
72 72 72 71 70 70 71 71 73 74 77 79 80 82 84 83 81 79 75 72 69 66 62 59 57 56 56 56 57 59 61 63 64 65 67 70 74 77 79 80 80 79 80 81 82 82 81 79 75 72 71 71 72 74 78 82 84 85 84 86 85 84 85 86 87 87 85 84 83 82 83 84 86 88 89 92 93 92 89 86 83 81 81 82 84 85
74 72 70 69 69 69 71 74 77 80 83 86 87 88 89 89 88 84 79 74 68 63 58 56 56 56 57 59 61 63 64 65 65 66 67 70 72 74 76 77 77 78 79 79 80 79 76 74 72 70 69 71 72 73 75 80 82 82 82 87 88 87 86 86 86 85 84 83 84 85 86 87 88 89 88 89 88 85 83 82 82 83 84 85 86 86
72 70 68 69 71 74 78 81 83 86 88 90 91 90 88 87 85 82 77 71 65 60 56 56 56 57 59 62 64 66 66 66 66 67 69 71 72 72 72 72 73 74 75 75 74 73 73 73 73 74 74 75 75 75 76 78 80 81 85 88 87 85 85 85 85 85 84 85 86 87 87 87 86 85 85 84 83 83 83 84 85 85 86 86 85 86
74 74 76 80 82 85 87 88 90 90 90 90 90 88 86 84 81 77 71 64 60 57 56 57 58 60 62 64 66 67 66 65 66 67 70 70 71 71 71 71 71 73 73 73 71 70 71 72 74 75 77 77 78 78 79 80 83 86 88 87 86 85 84 84 84 85 85 85 84 84 83 83 83 83 83 84 85 86 86 86 86 86 85 85 87 89
84 85 86 87 88 88 88 88 88 88 87 86 85 84 82 80 75 69 63 59 57 57 58 60 63 65 67 69 69 68 65 66 68 70 71 69 69 69 70 71 72 72 72 71 70 70 71 73 74 74 73 74 75 76 77 82 86 88 88 86 86 86 85 84 84 85 85 84 83 83 83 84 84 85 86 86 86 86 85 85 84 85 87 90 93 95
92 92 91 90 88 86 83 84 84 85 84 83 83 81 78 71 66 61 58 59 60 62 65 68 70 71 70 69 68 66 65 68 73 75 73 70 69 69 71 72 73 73 72 71 71 71 73 74 73 72 72 73 76 78 78 83 88 90 88 84 84 85 84 83 84 84 83 82 82 83 84 86 87 87 88 87 87 87 86 84 85 88 93 96 98 99
96 96 95 93 91 89 85 86 87 87 86 82 77 72 67 63 61 61 62 65 68 71 75 77 77 75 71 68 67 66 67 70 74 77 76 73 71 71 73 75 76 75 74 73 73 73 74 73 72 72 72 75 77 80 80 82 85 86 85 83 83 83 83 83 83 82 81 81 83 84 86 87 87 87 86 86 86 85 85 88 93 97 99 99 98 96
96 96 95 95 93 90 87 85 83 80 77 71 65 61 59 61 64 68 71 74 77 79 80 81 80 78 73 71 69 69 74 77 80 82 82 78 74 72 74 78 80 80 78 77 76 75 75 73 72 72 74 74 73 73 74 79 81 82 82 84 84 83 83 82 82 82 83 85 86 87 88 88 88 87 87 87 87 88 91 95 98 100 100 98 94 90
91 89 89 88 86 84 83 79 74 69 64 62 61 63 67 73 78 82 85 87 88 89 89 86 84 82 80 77 75 76 83 89 92 92 90 85 80 77 76 80 81 81 80 78 77 76 75 75 75 76 75 70 65 63 67 74 78 80 82 82 83 83 84 83 83 84 85 87 88 89 90 90 89 88 87 89 92 95 97 99 100 99 96 91 89 88
85 83 82 80 79 77 75 71 67 65 66 72 79 85 90 93 95 96 96 96 96 96 97 94 92 90 90 88 88 89 94 97 99 98 96 91 85 81 79 80 82 81 80 78 77 77 75 74 75 75 75 72 70 68 69 72 75 79 81 82 83 83 83 83 83 84 84 87 89 90 92 92 91 91 92 95 97 99 98 99 98 96 91 89 90 90
80 78 77 77 76 74 72 71 73 78 86 92 96 98 100 99 98 98 98 97 96 96 96 95 95 96 97 98 99 98 99 99 99 98 96 91 86 82 79 81 82 81 79 77 76 75 75 74 73 73 74 73 70 68 67 70 74 78 82 82 82 83 82 82 83 84 86 89 91 91 92 93 94 95 95 97 99 100 100 99 96 92 89 90 91 91
82 80 80 82 84 85 86 90 95 99 100 99 98 98 98 98 96 95 96 94 94 95 96 97 98 98 98 97 94 91 93 96 98 97 96 90 85 80 78 81 82 81 79 76 75 75 76 75 74 73 73 71 68 66 67 70 74 78 82 82 81 81 81 82 83 85 88 90 91 93 95 96 96 95 93 95 97 99 98 98 96 94 93 94 93 92
91 92 94 96 96 97 97 97 97 96 95 93 94 95 95 94 93 92 93 94 95 96 98 98 98 96 94 91 89 89 91 95 97 98 98 91 84 79 79 82 83 82 80 78 78 78 78 76 74 72 72 71 70 70 69 70 71 74 79 81 82 81 81 82 85 88 91 92 93 94 95 96 96 96 95 95 96 97 97 97 97 97 96 94 93 91
97 98 99 99 98 97 95 93 91 90 88 86 85 85 84 84 84 85 88 91 94 97 98 97 96 94 91 90 89 90 90 95 98 99 98 92 86 82 81 85 85 84 82 81 81 80 78 76 74 72 71 72 73 73 71 68 68 70 75 80 82 83 85 87 89 91 92 92 94 95 95 95 95 95 96 96 97 98 98 97 96 96 95 94 92 92
98 98 97 96 95 92 89 87 84 82 81 80 80 80 79 78 77 78 82 86 90 94 96 96 94 90 85 83 83 84 85 93 97 98 97 92 87 83 83 88 89 88 85 84 82 80 78 77 74 72 70 71 73 75 74 69 66 67 71 76 80 83 86 87 89 90 91 92 93 95 95 96 96 96 96 97 98 98 98 97 96 96 96 95 95 95
94 93 92 90 88 85 83 81 79 76 75 77 80 83 81 78 77 77 79 81 84 88 90 89 84 78 73 73 74 77 82 91 96 97 97 94 89 86 87 91 91 89 87 84 82 80 79 77 74 71 69 70 72 75 75 70 67 67 69 72 77 81 84 86 87 89 91 92 93 94 94 95 95 95 96 97 98 98 99 98 98 97 97 96 95 94
87 86 84 82 80 78 76 74 71 69 68 73 81 87 86 84 83 81 78 78 80 83 84 80 75 71 68 69 71 75 80 89 94 96 96 96 94 92 92 93 92 90 88 84 81 79 78 76 73 71 69 69 71 74 74 71 69 69 71 73 77 81 84 85 86 88 90 91 92 92 93 94 95 95 96 97 98 98 98 99 98 98 96 96 95 93
84 84 83 80 78 75 73 69 65 64 68 78 87 93 95 94 91 87 82 83 85 87 86 82 78 75 73 72 71 73 79 89 95 97 97 97 96 95 96 95 94 91 88 83 79 76 74 73 73 72 71 70 71 71 72 72 73 74 74 76 79 81 84 85 86 87 89 90 91 92 93 94 94 94 94 96 97 98 98 98 98 97 96 97 96 93
80 81 81 80 79 78 77 75 75 77 83 91 96 98 98 98 96 94 92 93 94 93 90 87 84 82 80 78 74 74 82 92 96 96 97 97 97 97 97 95 93 90 86 80 76 71 68 68 69 70 71 70 70 69 69 70 71 72 73 75 77 80 83 85 86 86 87 87 88 89 91 92 91 89 87 90 93 96 98 98 98 97 97 97 96 94
82 82 82 82 83 84 85 87 90 93 95 96 97 97 97 97 97 97 97 97 97 96 95 91 89 87 86 82 78 78 85 93 96 95 96 96 96 95 93 92 91 89 87 81 74 69 65 64 65 67 68 68 67 66 66 67 68 69 70 72 75 78 80 83 85 86 86 85 85 85 86 88 87 85 81 82 86 90 95 97 97 97 96 97 96 95
89 89 88 88 88 90 92 94 96 97 97 97 97 97 97 96 96 96 96 96 97 97 97 94 92 91 91 86 82 81 84 93 96 97 96 96 95 94 92 91 90 90 89 84 78 71 67 63 63 64 65 64 63 63 63 65 66 67 68 71 73 76 79 81 83 84 83 83 83 84 84 85 85 83 78 78 80 84 89 95 97 96 96 96 96 94
94 93 92 92 93 94 95 95 96 96 96 96 96 96 96 96 96 96 96 96 96 97 97 95 93 91 90 87 85 85 87 94 96 97 97 97 96 95 91 89 88 87 87 84 81 77 72 67 64 63 63 62 61 61 63 64 65 66 68 71 73 76 78 80 80 80 79 79 80 81 83 84 84 82 77 76 77 79 84 92 96 96 96 96 96 95
96 95 94 93 94 94 95 95 96 96 96 96 96 96 95 94 93 93 95 96 96 96 97 96 93 89 87 85 85 88 92 95 95 94 95 96 95 92 88 85 83 81 80 80 78 77 74 69 65 62 61 60 60 61 62 63 64 66 68 71 74 75 77 78 77 77 76 77 78 79 80 82 83 82 80 78 77 77 81 89 94 97 97 96 96 96
92 92 92 92 92 93 94 96 96 96 96 96 96 95 95 93 93 93 94 94 95 95 96 96 95 92 87 84 84 85 89 89 84 80 83 93 94 90 84 81 79 77 76 74 73 71 67 63 60 58 57 57 58 59 60 61 63 66 69 72 74 75 76 76 76 75 75 76 76 77 79 81 82 82 81 80 78 77 78 85 92 96 97 95 95 96
87 87 89 90 91 92 94 96 96 96 96 96 95 94 94 94 95 95 94 94 94 95 95 93 93 93 90 86 83 83 85 80 73 67 67 82 87 84 78 74 73 72 71 69 66 63 59 57 56 56 57 56 56 57 58 60 64 67 71 73 75 76 77 76 75 74 74 75 75 76 78 81 83 83 83 81 79 77 78 84 89 94 95 95 95 95
83 84 87 89 91 93 95 96 96 96 95 94 92 91 92 92 93 93 92 91 91 91 90 88 84 81 79 81 82 81 81 73 66 61 58 66 72 76 75 69 68 67 66 64 62 60 58 57 58 58 58 57 57 57 59 63 67 70 72 74 75 77 77 76 74 73 73 74 75 77 80 82 85 86 86 82 80 79 80 84 88 91 92 93 94 95
82 84 88 90 92 93 94 95 95 95 95 92 90 89 89 88 88 88 88 82 80 81 86 83 77 70 63 65 67 69 70 67 63 60 58 59 65 71 76 70 68 68 68 66 65 63 62 61 60 60 60 59 60 61 64 68 70 71 73 75 77 77 76 75 73 73 73 74 76 78 81 85 89 91 89 85 83 82 83 85 86 87 88 90 91 93
83 86 90 91 92 93 94 95 95 95 95 91 90 89 88 87 86 86 86 80 76 77 83 82 80 74 63 59 58 60 62 63 63 62 61 62 65 69 77 74 73 72 73 73 71 70 68 65 64 63 63 64 67 70 72 73 73 73 75 77 78 77 75 74 73 73 73 75 78 81 85 89 93 95 94 90 88 86 85 84 83 84 85 87 88 90
86 88 91 93 94 94 94 95 95 94 93 90 89 89 88 87 85 83 83 81 80 80 81 80 80 80 73 66 64 63 65 67 68 69 70 71 73 76 80 81 80 79 79 80 79 77 74 72 70 70 70 72 74 76 77 77 76 76 77 78 76 74 73 74 74 75 75 77 80 84 88 92 94 95 94 90 88 85 83 83 83 84 85 87 87 87
87 90 93 95 95 96 96 95 94 92 90 89 89 88 88 87 85 83 81 79 78 78 76 74 75 76 76 76 76 75 74 73 75 77 80 82 85 87 89 90 90 89 87 87 84 82 80 79 79 79 80 80 80 79 78 78 77 78 79 78 75 73 74 75 76 76 77 80 84 88 91 93 94 93 91 88 85 84 83 83 84 85 86 86 86 86
90 92 94 95 96 96 95 93 91 89 88 87 86 85 85 85 84 82 77 76 76 75 73 71 71 71 69 69 74 79 81 80 81 84 88 90 92 93 93 94 94 94 94 91 89 87 86 86 86 86 85 84 82 81 79 78 78 79 79 78 76 75 76 76 77 77 79 83 87 90 92 93 93 91 88 86 85 84 84 84 84 84 85 85 85 85
91 93 94 94 92 90 88 87 87 86 84 81 80 81 81 81 80 79 77 74 73 72 72 72 72 70 65 63 67 73 79 80 83 88 92 94 94 94 94 95 95 95 95 94 92 91 89 90 90 89 88 86 84 82 80 79 78 77 77 77 77 78 77 77 77 79 82 85 88 90 92 92 91 89 88 86 85 84 83 82 82 82 83 83 83 83
91 92 91 89 88 86 84 82 82 81 78 75 75 76 79 80 80 78 75 72 71 71 72 72 71 69 65 64 67 72 77 80 84 88 92 93 94 95 95 95 95 95 94 95 93 91 89 89 89 89 88 88 87 85 82 80 78 76 75 77 78 79 77 77 79 82 84 87 89 90 91 91 90 89 88 87 84 82 80 79 79 79 80 81 82 83
85 85 83 82 81 80 79 77 76 75 73 72 72 74 78 79 79 78 75 72 71 71 72 72 70 67 64 65 69 73 77 79 81 84 87 90 92 94 95 95 95 94 93 94 94 92 90 89 88 88 88 90 91 90 86 82 79 77 77 79 81 81 80 81 82 84 86 87 88 90 90 91 90 89 88 85 82 80 78 78 77 77 78 80 81 83
79 77 76 75 73 72 71 70 70 70 70 70 71 73 76 78 78 78 77 75 73 73 72 73 71 68 65 67 71 74 77 77 79 80 83 86 90 92 94 94 95 95 94 94 95 95 94 92 91 91 91 91 89 87 84 82 80 80 81 83 84 83 83 83 84 85 86 88 88 89 90 91 90 88 86 83 81 80 79 78 77 77 78 79 81 83
74 72 71 69 68 67 68 68 68 67 66 67 69 72 74 76 77 78 79 78 77 75 74 74 72 70 69 70 73 75 77 78 79 80 81 84 87 89 90 91 92 93 94 93 93 94 95 95 94 93 91 86 82 79 79 80 81 82 83 84 84 83 82 83 84 86 88 90 90 90 90 91 89 87 84 82 81 80 79 78 78 78 78 79 81 82
72 71 69 67 67 66 66 67 66 66 65 66 67 70 73 75 77 78 79 79 79 78 76 75 74 73 72 72 73 75 77 79 80 81 82 84 86 88 88 88 89 89 90 89 88 88 89 88 86 86 89 85 80 76 77 78 80 81 83 84 84 83 82 83 85 87 89 90 90 90 90 90 88 86 84 83 81 80 79 78 77 77 78 80 81 83
73 71 70 69 68 68 68 68 68 67 67 67 68 69 71 74 77 79 78 79 80 79 78 77 76 75 74 73 74 75 78 80 81 83 84 86 88 89 89 88 87 86 85 84 83 82 83 80 76 75 81 86 84 80 79 78 79 80 81 83 83 83 83 84 86 88 90 90 90 90 90 89 88 86 85 83 81 80 78 77 77 78 79 81 83 85
75 74 73 72 71 71 71 71 71 70 70 69 69 69 71 72 76 78 78 79 79 79 78 78 77 76 74 73 74 75 78 80 82 83 85 87 88 89 89 89 87 85 82 79 78 78 80 79 76 74 77 84 85 82 78 77 77 79 81 82 84 84 85 86 88 89 91 92 91 91 90 89 88 86 84 83 82 80 78 78 78 78 80 82 85 87
78 77 76 75 74 74 74 74 73 73 73 72 71 71 71 71 73 75 77 79 79 79 78 78 77 75 74 74 75 76 79 80 81 82 84 87 89 90 89 88 86 83 79 76 72 70 69 72 75 77 81 83 83 81 77 77 79 81 82 84 86 87 87 87 89 91 93 93 93 91 90 88 86 84 83 83 82 80 78 78 78 79 81 84 86 88
80 80 79 79 78 77 76 76 76 75 75 75 74 72 71 71 72 73 75 77 78 79 79 78 77 75 75 75 76 78 80 81 82 83 85 87 89 89 88 87 85 82 79 75 72 69 65 63 66 72 78 79 78 76 76 80 83 85 85 87 88 89 89 89 90 92 93 94 93 91 89 86 84 83 83 82 81 80 79 79 79 80 83 85 87 89
Wind_Speed
15 15 17 20 20 20 19 19 19 18 18 18 17 18 19 20 22 24 25 25 25 25 25 25 25 25 25 26 26 26 27 27 27 27 26 26 25 24 23 22 21 20 20 21 21 21 21 22 22 22 22 22 21 21 21 21 21 22 22 22 22 21 22 22 21 21 19 18 18 18 19 20 21 22 22 23 23 23 24 24 25 25 26 27 27 28
14 16 17 19 19 19 18 17 16 15 15 14 15 15 17 18 21 23 24 24 23 23 22 22 22 22 22 22 23 24 25 25 25 25 25 25 24 24 23 22 22 22 21 21 21 21 21 21 21 21 21 21 20 20 21 21 21 20 20 20 20 20 21 20 19 18 17 17 18 19 20 21 22 22 23 23 23 24 24 25 25 26 27 27 28 28
11 12 13 15 16 16 16 14 13 12 13 14 16 17 19 19 19 19 19 19 19 19 18 18 18 18 19 20 21 22 23 23 23 23 23 23 23 23 23 22 22 22 22 21 21 21 20 20 20 20 19 19 19 20 20 20 19 19 19 19 19 19 20 20 19 19 19 19 20 20 21 22 22 23 23 23 24 24 25 25 26 26 27 27 28 28
11 11 11 11 11 12 13 12 11 11 13 15 18 19 19 18 17 17 17 17 17 17 16 17 17 17 18 19 20 21 21 22 23 23 23 23 23 23 22 22 21 21 21 21 21 20 19 19 19 18 18 18 18 19 19 18 18 18 18 18 18 18 19 20 20 20 21 21 21 21 22 22 22 23 23 24 24 25 25 25 26 26 27 28 28 29
14 14 13 11 10 10 11 11 11 11 13 14 15 16 15 15 15 15 16 16 16 16 16 16 16 17 18 18 19 21 22 23 24 24 24 24 23 23 22 21 20 20 20 20 19 19 18 18 17 17 17 17 17 17 17 17 17 17 17 17 18 18 18 19 20 20 21 21 21 21 21 22 23 23 24 24 24 25 25 26 26 27 28 28 28 28
16 15 13 11 10 10 11 10 10 11 11 11 12 12 12 13 14 14 14 14 14 15 15 15 16 17 18 19 20 21 23 24 24 24 23 22 22 21 20 19 19 18 18 18 17 17 16 16 16 16 16 16 16 16 16 16 16 16 16 17 17 17 18 18 19 19 19 20 20 21 21 22 23 24 24 24 25 25 25 26 26 27 27 27 27 27
15 13 12 11 11 11 11 11 10 10 10 10 11 12 12 13 13 14 14 14 14 14 15 15 16 17 18 19 20 21 22 22 21 21 20 19 19 18 18 18 17 17 17 16 16 15 15 15 15 15 15 15 15 15 15 15 15 15 16 16 16 16 17 17 18 18 19 19 20 21 21 22 23 24 24 25 25 25 25 26 26 27 27 27 26 26
14 12 11 11 11 11 11 11 10 10 10 11 11 12 13 13 13 14 14 15 15 15 15 16 17 17 18 18 19 19 19 19 18 18 17 16 16 16 16 16 16 16 16 16 15 15 15 15 14 14 14 14 14 14 14 14 15 15 15 15 15 16 16 16 17 17 18 19 20 21 22 22 23 24 24 24 24 25 25 25 25 26 26 26 26 27
13 13 12 11 11 11 11 11 11 10 11 12 12 13 14 14 15 15 15 15 15 15 16 17 18 18 18 18 18 18 18 18 17 17 16 16 16 16 16 16 16 16 16 16 15 15 14 14 14 14 14 13 14 14 14 14 14 14 14 14 15 15 15 16 17 17 18 19 20 21 22 22 23 23 23 23 23 24 24 24 24 25 25 26 27 28
12 12 12 12 12 12 12 13 13 12 12 12 13 13 13 15 15 16 16 16 15 15 15 16 18 19 19 18 17 17 18 18 17 17 17 17 17 17 18 18 17 17 16 15 15 14 14 13 13 13 14 14 14 14 14 13 13 13 13 14 14 14 15 16 17 18 18 19 20 21 21 21 22 22 22 22 22 23 23 23 24 25 26 27 28 28
11 12 12 13 13 13 13 13 13 13 12 13 13 14 13 13 13 13 14 15 15 15 16 17 18 18 18 18 18 17 17 17 17 17 16 16 16 17 17 17 16 16 15 14 13 13 13 13 13 13 14 14 14 13 13 12 12 12 13 13 13 14 15 16 17 18 18 19 19 20 20 20 20 20 21 21 21 22 23 24 25 26 26 27 28 28
11 12 12 13 13 13 13 14 14 13 12 12 12 13 12 11 11 11 12 14 16 17 19 19 18 17 17 17 17 17 17 17 16 16 15 15 14 14 14 13 12 12 12 11 11 11 11 12 12 13 13 12 12 11 11 11 11 12 12 12 13 14 15 16 17 18 18 18 19 19 19 19 20 20 20 21 22 22 23 24 25 26 26 27 27 27
13 13 13 13 13 13 14 14 14 13 12 12 12 11 11 10 10 11 14 16 18 19 19 19 18 17 16 16 17 17 16 16 16 15 15 14 13 12 12 11 10 10 9 9 9 9 9 10 10 11 11 11 10 10 10 10 10 11 12 13 14 15 16 16 17 17 17 18 18 18 18 19 19 20 21 21 22 23 24 24 25 25 25 26 26 26
14 14 15 14 14 14 14 13 13 12 11 11 11 10 10 11 12 14 16 18 19 19 18 18 18 17 16 16 16 16 16 15 15 14 14 13 12 12 12 11 10 10 10 10 9 9 8 8 9 9 9 8 8 8 9 9 10 11 12 13 14 15 15 16 16 16 17 17 17 18 19 19 20 21 21 22 22 23 23 24 24 24 24 25 25 26
14 14 14 14 14 14 13 13 13 12 12 11 11 11 12 13 14 16 17 19 19 18 17 17 17 17 16 15 15 15 15 14 13 13 12 12 12 12 12 12 11 11 10 10 10 9 8 8 8 8 7 7 7 8 8 9 10 11 12 13 14 14 15 15 16 16 16 17 18 18 19 20 20 21 21 22 22 22 22 23 23 23 24 25 25 25
13 13 12 12 13 13 13 12 11 10 11 11 12 12 14 16 17 18 18 18 18 17 15 15 15 15 15 14 14 14 14 13 12 11 11 12 12 12 12 12 11 11 11 11 10 9 9 8 8 7 7 7 7 8 9 10 11 12 13 13 14 14 14 15 15 16 17 17 18 19 19 20 20 21 21 21 21 21 21 22 22 24 24 24 23 23
11 11 11 11 12 12 12 12 11 11 11 13 14 15 16 17 18 18 17 16 15 14 13 12 10 9 10 13 13 12 11 11 10 10 10 12 13 13 12 12 12 12 12 11 11 10 9 8 7 7 6 7 7 9 10 11 11 12 12 13 13 13 14 15 15 16 17 18 18 19 19 20 20 20 20 20 20 20 21 22 23 23 23 21 20 21
11 11 11 11 11 12 12 12 12 12 14 15 17 18 18 18 17 16 16 15 14 13 13 13 11 9 8 10 11 11 10 9 10 10 11 12 14 14 13 12 12 12 13 12 11 10 8 7 7 6 7 8 10 11 11 11 11 12 12 12 13 13 14 15 16 17 18 18 18 19 19 19 19 19 19 19 19 20 21 23 22 21 19 19 20 21
12 12 12 12 13 13 13 13 14 16 17 18 18 18 17 17 16 16 15 15 14 14 13 13 13 13 13 14 14 14 13 11 10 10 10 12 13 15 14 13 12 12 12 12 10 9 8 7 7 7 8 10 11 12 12 12 12 12 12 12 13 13 14 15 16 17 18 18 18 18 19 19 19 18 18 19 20 21 22 21 20 19 19 19 21 22
13 13 12 13 14 15 15 15 16 17 17 17 17 16 16 15 15 15 15 15 15 14 14 14 14 14 15 16 16 16 15 13 11 9 9 11 13 15 14 13 12 12 11 11 9 8 7 6 7 7 8 10 11 12 12 12 12 11 11 12 13 14 15 16 17 17 18 18 18 18 18 18 18 18 18 19 21 21 21 20 19 19 19 20 21 22
15 15 14 14 15 16 16 16 16 15 15 16 16 15 14 13 13 13 13 13 14 15 15 14 14 14 13 13 15 16 16 14 11 9 10 11 13 14 13 12 11 11 10 10 8 7 6 6 6 7 7 9 11 12 13 12 11 11 11 12 13 14 15 16 17 17 17 17 17 18 18 17 17 18 18 20 21 21 21 20 20 20 20 21 22 22
16 16 15 15 14 14 15 14 14 14 15 15 15 15 14 13 13 14 14 15 15 15 14 14 14 15 15 16 17 18 16 14 13 12 11 10 12 13 12 10 9 9 9 9 8 7 6 6 6 7 8 10 12 13 12 12 11 10 11 12 13 15 16 16 17 17 17 17 17 17 17 17 17 17 17 19 20 21 21 21 20 20 21 21 22 22
14 15 15 14 13 13 14 15 15 15 15 15 14 14 14 14 15 16 16 16 16 16 16 16 17 17 17 17 17 17 16 14 12 11 9 8 10 12 10 8 7 7 8 8 7 6 6 6 7 8 9 10 11 12 12 11 11 11 11 13 14 15 16 16 16 16 16 16 16 16 16 16 16 17 17 18 18 19 20 20 20 20 21 21 22 23
15 15 16 15 15 16 17 17 17 16 16 15 15 15 15 15 16 17 17 17 17 17 17 18 18 17 16 15 15 16 15 13 12 10 8 8 10 11 9 6 5 6 7 7 6 6 6 7 8 9 10 10 10 10 11 12 12 12 13 14 15 15 16 16 16 16 16 16 16 16 16 16 16 16 17 17 18 18 19 19 19 20 21 22 22 23
16 17 18 18 18 18 19 18 18 18 17 17 16 16 16 17 17 18 18 18 17 17 17 16 15 14 13 13 12 13 14 12 11 9 8 8 10 11 9 6 5 5 6 6 6 6 7 8 9 10 10 9 9 9 11 12 13 14 14 15 15 15 15 15 15 15 15 15 15 15 15 15 16 16 16 17 17 18 18 18 19 20 21 22 23 22
17 18 19 20 20 20 20 20 20 20 19 19 18 17 17 18 18 17 17 16 15 14 13 12 11 12 13 12 12 12 11 10 9 8 8 9 10 11 8 4 2 3 4 5 6 7 8 9 10 10 10 9 8 8 11 13 14 15 15 15 15 14 14 14 14 15 15 15 14 14 14 15 15 16 16 17 17 17 18 18 19 20 21 22 22 21
18 19 20 21 21 21 20 20 20 20 20 19 18 17 17 16 15 15 14 13 12 12 11 10 10 11 12 11 10 10 10 8 7 8 10 11 11 8 4 2 2 3 4 6 7 8 9 10 10 10 9 8 8 8 10 12 14 14 14 14 14 14 14 14 14 14 14 14 14 14 14 14 15 15 16 16 16 17 17 17 18 19 20 20 20 19
18 18 19 19 19 18 17 17 17 17 17 16 16 15 14 13 12 11 11 11 11 11 10 10 9 8 8 9 10 10 8 7 7 9 10 11 8 5 3 5 5 5 6 7 8 9 9 9 9 9 8 8 8 8 10 11 12 13 13 13 13 14 14 14 14 14 14 13 13 14 14 14 15 15 16 16 16 16 16 17 17 18 19 19 18 18
16 16 16 16 15 14 14 13 13 13 14 13 13 12 11 10 10 10 11 11 11 10 10 10 9 9 9 10 11 9 6 8 11 11 10 8 6 4 5 6 6 6 7 8 9 9 9 8 7 7 7 7 8 9 10 10 11 11 12 12 12 13 13 13 13 13 13 13 14 14 14 14 15 16 16 16 16 16 16 16 17 17 17 17 17 17
15 15 14 14 13 12 12 11 11 12 12 12 12 11 10 9 9 10 11 11 11 10 9 9 9 10 10 10 9 6 5 9 13 14 12 8 6 6 7 7 6 6 6 7 7 7 7 7 6 5 6 7 9 10 10 10 11 11 11 11 12 12 12 12 13 13 13 13 13 14 14 15 15 16 16 16 15 15 16 16 16 16 16 16 16 16
14 14 13 13 12 11 11 10 10 11 12 12 12 11 11 10 10 10 10 11 10 10 9 9 9 9 9 8 5 3 4 8 12 14 13 10 8 8 9 9 8 7 7 6 4 3 4 6 7 7 7 9 10 11 11 10 10 10 11 11 11 11 12 12 13 13 13 13 13 14 14 15 16 16 17 17 16 16 16 16 16 16 16 16 15 16
14 13 12 12 12 11 10 10 10 10 11 11 12 13 13 13 12 12 12 12 11 10 10 10 10 9 9 7 5 3 4 8 11 12 13 10 8 8 10 10 9 9 8 7 6 4 3 4 7 9 10 11 11 11 11 10 10 10 10 11 11 11 12 12 12 13 13 13 13 14 14 15 16 17 18 18 17 17 16 16 16 16 15 15 15 15
13 12 12 12 11 11 11 10 10 10 11 12 13 14 14 14 14 14 13 12 12 11 10 10 10 9 9 8 6 5 5 8 10 11 12 10 8 8 9 10 10 9 9 8 8 7 6 7 9 11 11 11 11 10 10 9 9 9 10 11 11 11 12 12 12 12 13 13 14 14 14 15 16 17 18 18 18 17 17 17 16 16 15 15 15 15
12 12 11 11 11 11 11 11 11 11 12 13 13 13 13 13 13 13 13 12 11 11 10 10 9 9 9 8 7 6 6 9 11 12 11 10 8 8 9 9 9 9 9 9 9 9 9 10 10 11 11 11 11 10 9 9 9 9 10 10 11 11 12 12 12 13 13 14 14 14 15 15 16 17 18 18 18 18 18 17 17 16 15 14 14 14
11 11 10 11 11 11 12 12 11 12 12 12 12 12 11 11 11 12 12 12 11 11 10 10 9 9 8 8 7 7 7 10 12 13 12 10 8 8 9 9 9 9 9 9 9 9 9 10 11 11 11 11 11 9 8 8 9 9 10 11 11 11 12 12 13 13 14 14 14 15 15 15 16 17 18 19 19 18 18 17 17 16 15 14 13 13
10 10 11 11 12 12 11 11 11 11 11 11 11 11 11 11 11 11 11 11 10 10 10 10 10 10 9 8 7 7 8 11 13 14 13 11 10 8 8 9 9 9 9 10 10 10 9 10 11 12 11 10 9 9 9 9 10 10 11 11 11 12 12 12 13 13 14 14 14 15 15 16 16 17 18 19 19 18 17 17 16 15 14 13 13 13
10 11 12 12 12 11 10 10 10 10 10 11 11 11 11 11 11 11 10 11 11 10 9 9 10 11 11 10 9 9 10 12 13 14 13 13 11 9 8 9 9 9 9 9 10 10 10 10 11 11 10 9 8 9 10 11 12 11 11 12 12 12 12 13 13 14 14 14 14 15 15 16 17 18 19 20 19 18 17 16 15 14 14 14 14 13
11 11 12 12 11 10 10 9 10 10 10 11 11 11 11 11 11 11 10 11 12 11 10 9 9 11 12 12 12 12 12 12 13 14 14 13 12 10 9 9 9 9 9 9 9 10 10 9 9 8 8 9 9 10 11 12 12 12 13 13 13 13 13 13 14 14 14 14 14 15 15 16 16 18 19 19 18 17 16 15 15 14 14 15 14 14
11 11 11 11 11 10 10 10 10 10 10 10 11 11 11 11 11 11 10 10 10 11 11 10 10 10 11 12 12 13 13 13 13 14 14 13 13 11 10 9 9 9 9 9 9 9 9 9 8 7 8 9 10 11 11 12 12 13 14 14 14 13 13 13 14 13 13 14 14 15 15 16 17 17 17 17 17 16 15 15 15 15 15 15 15 14
12 11 11 11 10 10 10 10 10 10 10 11 11 11 11 11 11 11 10 10 10 10 11 12 11 9 8 8 9 11 13 13 13 13 14 13 13 12 11 10 9 9 9 9 8 8 8 8 9 9 9 9 9 11 11 12 12 13 14 14 13 13 14 14 13 13 13 13 13 14 15 16 17 17 16 16 15 15 15 15 15 15 15 15 14 14
11 11 11 10 10 10 10 10 10 10 11 11 11 12 13 13 12 12 12 11 11 11 13 13 12 10 8 7 7 8 11 13 13 13 14 14 14 13 12 10 10 9 9 9 9 8 8 8 8 8 9 9 10 11 12 12 13 14 14 13 13 14 15 14 13 13 13 13 13 14 14 16 17 17 17 16 16 15 15 14 14 15 15 14 14 14
11 10 10 10 10 10 10 11 11 11 11 11 12 12 14 14 13 13 13 12 12 12 13 13 12 10 9 8 8 8 10 12 13 12 12 13 14 13 12 10 10 9 9 9 9 8 8 8 8 8 8 9 10 10 11 12 13 13 13 13 14 15 14 13 13 12 13 13 13 14 14 16 16 17 17 17 17 16 15 14 14 14 14 13 13 13
10 9 9 9 9 10 11 11 11 11 11 12 12 13 13 14 14 14 13 13 13 13 13 13 12 10 9 9 9 9 10 11 11 11 11 11 12 12 11 10 10 10 10 9 8 8 8 8 8 8 8 9 10 10 11 12 12 12 12 13 14 14 12 12 13 13 13 13 13 13 14 15 17 17 17 17 16 15 15 14 14 13 13 13 13 13
9 9 9 9 9 10 10 11 11 11 12 12 12 13 13 14 14 14 13 13 13 13 13 13 12 10 10 10 10 10 10 11 10 10 11 11 12 12 11 10 10 10 10 8 7 7 8 8 8 8 9 9 9 9 10 10 11 12 12 13 13 12 11 11 13 13 13 13 13 14 14 15 16 17 17 16 15 15 14 14 14 13 13 13 13 13
9 9 10 10 10 11 11 12 11 11 12 12 12 13 13 14 14 13 13 13 12 13 13 12 11 10 10 10 11 11 11 11 11 11 12 12 12 12 11 11 10 10 10 9 8 7 7 8 8 9 9 9 9 9 9 10 11 12 12 13 12 12 11 11 12 12 13 13 14 15 15 16 16 16 16 16 16 15 15 14 14 14 14 13 13 13
10 10 10 11 11 11 11 12 12 11 12 12 12 13 13 14 14 13 13 13 12 12 12 12 11 10 10 11 11 12 12 12 12 12 13 13 14 13 13 12 11 10 10 10 9 8 8 7 8 8 9 9 9 9 10 11 11 12 12 13 12 12 11 11 11 12 12 13 14 15 16 17 16 16 16 16 16 16 15 15 14 14 14 14 14 14
11 11 11 11 11 11 11 12 12 12 12 12 12 12 13 14 14 14 13 13 12 12 12 12 11 10 11 11 12 12 12 13 13 13 14 14 15 15 14 14 12 11 10 10 10 9 8 7 7 7 8 8 9 10 11 11 12 12 12 12 12 12 11 11 12 12 13 14 14 16 17 17 16 15 16 16 17 16 16 15 15 15 14 14 14 14
11 11 11 11 11 11 12 12 12 12 12 12 12 12 12 13 14 14 13 13 13 12 12 12 12 11 11 12 12 12 12 12 12 13 13 14 15 15 15 15 14 13 11 10 10 9 8 8 7 7 6 7 8 10 11 12 12 12 11 11 11 11 11 11 12 13 14 14 15 16 16 15 15 15 16 17 17 17 17 16 16 15 15 15 15 15
11 11 11 11 11 11 12 12 12 12 12 12 12 12 12 13 13 13 13 13 12 12 12 12 12 12 12 12 13 13 13 12 12 12 13 14 14 15 15 15 15 14 13 12 10 9 8 8 7 6 6 6 7 9 11 12 12 12 11 11 11 11 11 12 12 13 14 15 16 16 16 14 14 15 16 16 16 17 17 17 16 16 15 15 15 15
11 11 11 11 11 11 11 12 12 12 12 12 12 12 12 13 13 13 13 13 12 12 12 12 12 12 12 13 13 13 13 12 12 12 13 13 14 14 15 15 15 15 14 13 12 11 9 8 7 6 6 5 6 8 10 12 12 12 11 11 10 11 11 12 13 13 15 16 16 16 15 15 15 15 15 15 16 16 17 17 17 16 17 17 17 17
10 11 11 11 11 11 11 11 12 12 12 12 12 12 12 13 13 13 13 13 13 13 12 12 12 13 13 13 13 13 12 12 12 12 13 13 13 14 14 14 14 14 14 13 13 13 12 10 8 6 5 4 6 8 9 10 11 12 12 11 11 11 11 12 13 14 15 16 16 15 15 15 15 15 16 15 15 16 16 17 17 18 18 18 18 18
Wind_Direction
249 249 251 252 251 251 254 257 261 265 267 267 269 273 279 282 284 285 287 288 289 289 289 289 289 290 292 294 296 298 299 298 298 297 296 295 295 294 293 293 292 290 289 289 289 290 289 288 287 286 285 284 285 287 290 293 295 297 297 296 295 293 292 291 289 287 288 291 294 296 297 296 296 295 296 296 297 297 298 298 298 298 298 297 296 296
257 255 255 254 256 259 263 264 263 262 263 265 268 272 277 281 284 287 289 289 289 288 288 288 288 289 290 291 293 294 293 292 291 291 292 293 293 293 292 292 291 290 289 289 289 290 290 288 286 285 284 284 286 288 290 293 294 295 295 295 294 293 292 292 293 294 296 298 298 298 297 296 295 295 295 295 295 295 296 296 296 296 296 296 295 295
263 261 258 259 261 263 264 264 259 255 257 263 268 274 278 280 281 283 284 285 285 285 284 284 285 285 286 287 288 288 288 287 287 287 289 290 291 291 291 290 290 289 288 288 289 290 289 288 286 284 283 285 287 289 290 292 293 294 293 293 293 293 295 298 299 299 300 299 297 296 295 294 293 293 293 293 293 293 294 295 295 295 295 295 295 295
265 264 261 259 256 255 257 259 258 257 261 268 273 277 278 278 278 278 279 281 281 281 281 281 282 283 284 285 286 286 286 287 287 288 288 290 290 291 290 289 288 287 286 287 288 289 289 287 285 284 284 286 288 290 291 292 292 293 292 292 292 293 297 297 295 293 294 294 294 293 292 292 292 292 292 292 292 293 294 294 295 295 295 295 294 294
268 268 267 263 258 256 258 260 262 264 269 273 276 278 277 276 276 277 279 279 280 280 281 281 282 282 283 285 286 287 288 288 288 288 289 289 290 290 290 289 288 287 286 286 288 288 287 286 284 284 285 287 289 291 292 292 292 292 292 292 292 293 294 293 292 291 292 292 292 292 291 291 291 291 291 292 292 293 294 295 295 295 295 294 294 294
272 272 271 268 266 267 269 267 265 266 271 273 274 275 275 274 275 276 277 277 278 279 280 280 281 282 284 284 285 287 288 288 288 288 287 287 288 289 290 289 289 288 287 288 289 289 287 286 285 285 287 288 290 290 291 291 291 291 291 291 292 292 292 292 292 292 292 292 292 292 292 292 292 292 292 293 294 295 296 296 296 295 294 294 295 296
277 274 273 271 270 270 271 268 265 264 267 271 275 276 276 275 274 274 275 276 277 279 280 280 282 284 284 284 285 286 288 289 289 288 287 286 287 288 289 289 288 287 287 287 288 288 288 286 286 286 287 288 289 289 289 289 289 290 291 291 292 292 292 292 293 293 293 293 293 293 293 294 294 294 294 295 296 297 297 297 296 295 294 296 298 298
279 277 273 272 272 272 270 268 266 266 269 273 277 279 279 278 277 277 278 278 279 281 283 284 286 286 286 287 288 289 289 290 291 290 289 288 288 289 290 289 289 288 287 286 286 286 285 285 285 286 286 287 287 287 287 288 288 289 290 291 292 293 293 294 295 295 295 295 295 295 296 296 296 296 297 297 297 297 296 296 295 296 297 299 301 300
276 277 274 271 272 275 277 275 272 273 275 277 278 279 281 282 282 283 282 282 283 284 286 288 290 290 290 290 291 291 291 290 290 290 289 289 289 290 290 291 290 289 287 285 284 283 282 282 283 283 284 285 285 285 286 287 288 289 290 292 293 294 295 296 296 296 296 297 297 298 298 298 298 298 298 298 297 296 296 296 297 299 300 301 301 300
270 272 274 273 273 275 279 281 282 281 281 280 277 275 276 279 282 285 285 284 285 286 287 289 292 293 294 293 292 292 292 291 290 288 287 286 286 287 289 291 292 292 291 289 287 284 281 280 280 281 283 284 284 284 285 286 288 289 290 292 293 295 296 297 297 298 299 299 300 300 300 300 300 299 298 298 297 297 298 300 301 301 301 300 299 299
269 269 272 275 276 276 276 280 283 286 284 281 277 272 266 265 269 276 282 285 288 290 291 292 293 293 294 294 294 293 293 292 291 290 288 287 286 287 288 290 292 295 296 295 293 289 285 284 284 286 287 288 286 285 285 286 287 289 290 292 295 296 298 298 299 300 302 302 302 302 302 301 301 300 300 301 302 302 303 303 303 301 300 300 299 299
271 273 273 275 278 279 280 282 284 285 282 277 274 270 262 255 255 266 279 287 293 296 297 296 294 292 291 292 293 293 292 290 290 291 291 291 290 289 289 289 290 291 293 293 292 290 289 288 291 294 294 293 291 288 286 286 287 289 292 294 297 299 300 301 302 303 304 304 304 303 303 304 304 304 304 306 306 305 304 303 302 300 300 299 299 298
275 277 278 280 281 283 285 286 286 282 276 269 268 271 273 273 275 280 286 290 294 297 298 297 294 292 290 289 290 290 289 288 287 289 290 292 293 293 292 292 291 290 291 290 287 285 284 286 290 294 294 293 290 288 287 288 290 293 295 298 299 301 303 304 305 305 306 306 306 307 307 307 306 307 307 306 305 304 303 301 301 300 300 299 299 298
281 283 285 285 285 285 284 283 280 277 274 272 273 279 286 290 291 292 292 293 294 296 296 294 293 292 292 289 288 286 286 285 286 286 288 290 292 294 294 293 292 291 290 290 287 284 283 284 286 287 287 286 285 286 288 290 293 296 298 300 302 304 305 306 307 307 308 309 309 308 308 307 307 306 305 304 304 303 302 302 301 300 300 299 299 299
286 288 288 287 286 287 286 285 283 282 284 286 288 290 292 292 293 294 295 294 296 296 295 292 291 290 289 288 286 285 283 281 280 282 285 289 292 295 295 294 292 290 289 288 286 285 284 284 285 285 285 284 284 285 288 293 297 299 301 303 305 306 307 308 309 310 310 309 309 308 308 307 306 306 305 304 304 303 303 302 301 301 300 300 302 304
293 293 292 292 292 293 293 293 294 295 296 297 296 295 295 295 296 296 295 294 294 295 294 292 291 289 288 287 286 285 283 279 275 277 283 288 293 296 296 294 291 289 287 286 285 285 285 285 286 286 286 286 286 287 290 297 301 303 304 306 307 309 309 310 311 311 310 309 308 308 307 307 307 306 305 305 305 304 304 303 302 302 303 306 311 317
309 306 302 301 300 300 301 302 301 301 301 301 299 297 296 296 296 296 293 291 291 291 289 288 288 290 291 291 289 287 285 282 278 277 281 286 292 297 296 292 288 286 285 284 282 283 283 284 286 287 286 286 287 289 293 297 301 304 306 309 310 310 311 311 311 311 310 308 308 308 308 307 306 306 306 307 306 306 304 304 304 306 311 318 324 328
316 314 312 309 307 308 310 310 308 305 303 301 300 299 297 296 295 293 291 289 288 287 286 285 284 285 289 290 291 290 289 286 282 278 277 283 290 296 296 289 283 281 281 280 279 279 279 280 283 285 287 286 287 291 297 301 303 305 308 310 311 311 312 312 311 310 309 308 308 308 308 307 307 307 308 307 307 306 305 305 308 313 322 328 330 330
313 312 312 310 310 309 310 308 305 303 302 301 301 301 300 298 296 294 292 290 288 286 285 284 282 280 280 282 285 288 290 286 279 274 274 281 289 295 295 287 279 276 276 277 276 276 276 279 281 285 288 290 293 297 302 304 306 308 310 311 312 312 313 312 311 310 309 309 309 309 309 309 308 308 308 308 308 308 309 311 317 324 330 330 329 328
309 308 308 308 307 305 303 301 301 302 303 306 308 308 306 304 303 301 300 299 298 297 293 289 285 281 280 281 287 293 296 292 284 278 280 287 292 295 294 285 276 272 274 275 276 276 277 281 286 290 292 295 298 301 303 304 304 307 309 311 312 313 313 312 311 310 310 310 310 310 310 309 309 309 309 310 312 314 317 322 328 331 331 330 329 327
304 302 302 303 302 300 299 300 303 308 314 319 322 322 318 317 316 316 316 316 315 312 307 300 296 296 298 302 305 306 304 302 299 296 296 295 295 294 291 282 274 271 273 276 278 279 282 287 292 295 296 298 300 301 301 301 302 305 308 310 312 313 313 312 311 310 310 311 311 311 310 310 310 310 312 313 316 320 326 330 332 331 330 329 327 326
302 301 302 303 302 302 304 311 318 325 330 332 330 327 325 325 323 321 320 319 316 314 310 307 305 306 307 306 305 303 300 298 295 295 295 293 290 289 288 279 270 268 274 279 282 284 288 293 298 299 299 300 301 301 300 298 298 300 305 309 311 312 312 311 311 310 311 311 311 311 311 311 311 312 313 315 318 323 328 331 331 330 329 328 326 325
307 307 311 314 317 320 324 330 333 335 335 333 327 321 319 317 313 310 307 305 303 301 300 299 298 298 297 295 294 294 292 289 284 282 281 280 283 285 284 272 263 265 273 280 286 291 296 300 302 302 301 301 301 300 297 294 294 297 303 308 311 312 312 311 310 311 311 312 312 312 312 313 313 314 315 316 318 321 324 327 328 328 328 326 324 323
317 320 324 327 330 332 333 333 332 331 331 328 323 318 314 310 306 303 299 297 294 293 292 293 293 293 292 292 291 290 289 282 273 267 265 270 278 280 277 263 255 261 273 282 291 300 304 304 303 302 301 298 296 294 293 292 294 299 304 308 310 311 311 311 312 312 312 313 313 313 313 314 315 316 317 317 318 320 321 323 324 324 324 323 322 321
321 322 323 324 325 325 325 325 325 326 327 327 324 321 317 312 308 304 301 298 295 293 292 292 292 293 296 297 294 291 290 280 267 256 255 270 278 278 273 260 252 261 277 288 299 306 308 306 304 302 300 296 291 289 290 294 299 304 307 309 309 310 311 311 312 313 313 313 314 315 316 317 317 318 318 319 319 320 320 321 321 322 322 322 321 319
314 313 313 314 314 315 316 318 320 322 323 325 325 323 319 315 311 308 304 301 298 297 296 294 294 297 299 299 297 296 294 285 274 268 269 277 281 279 276 266 259 279 295 303 308 310 308 305 304 302 299 295 290 288 292 299 305 308 309 309 309 309 311 312 313 314 314 315 316 317 318 320 320 320 321 320 320 319 320 320 320 321 321 321 320 319
309 308 308 309 310 311 313 314 317 319 320 322 323 323 320 317 313 309 306 304 304 304 302 299 298 298 299 297 296 297 301 300 297 293 292 287 281 279 291 358 24 358 333 320 314 309 305 300 299 298 296 294 291 291 296 302 307 310 309 309 309 309 310 312 314 315 315 316 318 319 321 323 324 323 323 322 321 320 319 319 320 321 321 321 320 319
312 311 311 312 313 315 317 319 321 322 324 326 328 328 325 321 316 310 308 309 309 307 302 298 297 297 299 300 301 304 314 335 340 326 311 297 288 294 11 34 27 9 348 329 317 309 302 295 291 291 291 291 293 295 299 303 305 306 306 306 307 308 310 312 314 316 317 318 319 321 323 325 326 326 325 325 323 321 320 320 321 322 321 321 319 318
319 319 319 320 322 324 328 331 334 337 339 340 341 341 339 333 324 316 314 315 313 309 302 297 298 301 305 307 307 312 342 13 7 352 338 317 309 338 19 19 13 3 350 333 322 314 306 298 292 289 290 292 296 299 301 303 304 304 305 306 306 308 309 312 314 317 320 320 321 322 324 325 326 327 328 327 326 324 323 323 323 323 322 320 318 316
330 330 331 332 334 337 341 343 346 350 354 355 356 357 358 352 341 332 328 327 324 318 312 310 311 314 318 317 315 324 19 22 13 6 2 344 338 352 359 355 354 354 349 338 328 320 313 310 306 301 299 300 302 303 304 305 306 307 308 309 309 310 312 313 315 317 319 320 321 322 324 324 325 327 329 330 328 326 324 323 323 323 321 319 316 314
339 340 341 342 345 347 350 352 356 0 4 7 12 17 18 14 7 1 357 353 347 338 332 330 330 334 338 337 337 352 26 14 10 9 7 352 341 342 343 339 338 341 342 337 330 318 316 316 316 314 312 308 306 305 304 305 307 309 311 312 313 313 315 316 317 318 320 321 321 322 323 323 324 326 328 330 329 326 324 322 322 322 320 317 315 313
347 348 347 349 350 353 358 4 9 12 16 21 27 31 32 31 29 27 24 21 14 5 354 347 346 350 356 3 11 16 11 359 359 1 2 351 338 333 334 332 331 331 329 325 315 306 307 312 313 313 312 309 307 305 305 305 307 310 313 314 314 315 317 318 320 321 322 323 323 323 323 323 323 324 327 328 327 326 324 321 321 320 318 315 313 311
350 351 350 353 356 0 10 18 24 27 31 35 37 37 36 35 34 34 32 30 26 20 11 2 358 357 359 5 12 14 6 356 354 356 357 351 339 329 330 329 329 327 324 319 311 304 301 302 306 308 309 308 307 307 306 308 310 312 315 316 316 317 319 321 323 324 324 324 324 324 324 324 324 324 325 325 325 324 323 321 319 317 315 313 311 309
349 350 352 357 5 15 25 32 37 39 40 39 37 34 31 30 29 29 28 27 25 23 21 15 8 1 357 356 357 358 356 351 350 350 352 351 340 328 326 326 327 327 325 321 316 310 304 303 306 309 310 311 310 310 311 314 316 318 319 320 319 319 321 323 324 324 324 324 324 325 325 325 325 324 324 324 324 324 322 321 318 315 313 311 309 309
345 350 358 9 20 30 38 42 43 42 38 34 29 26 23 21 20 20 21 21 21 21 22 22 18 11 3 356 350 345 342 339 342 345 346 347 338 327 324 323 324 326 324 320 317 314 310 309 310 312 313 313 313 314 318 322 324 324 323 324 323 322 322 323 324 324 324 324 325 326 326 326 325 324 323 323 324 325 324 321 318 314 312 310 309 308
350 1 14 25 34 41 45 44 40 35 30 25 21 18 16 15 14 14 15 16 17 17 17 17 16 14 9 3 353 340 332 332 335 337 338 337 333 325 318 316 319 320 319 317 315 314 313 313 313 313 313 312 314 319 324 328 328 327 327 327 325 323 322 323 324 325 325 325 325 326 327 326 325 324 323 325 327 328 327 324 319 315 313 312 311 309
8 20 30 37 42 45 45 41 34 28 22 18 15 12 11 11 11 10 10 11 13 13 9 7 5 3 0 356 350 340 333 331 331 331 330 329 327 321 312 309 312 314 313 312 312 313 313 313 313 313 314 315 319 324 327 328 328 328 328 327 326 323 322 324 325 326 326 326 326 326 327 326 325 324 326 329 331 331 328 324 320 318 317 317 315 312
27 34 39 43 45 44 40 34 28 22 17 12 9 7 6 5 5 5 4 4 6 6 1 355 350 349 349 348 346 341 337 332 330 328 326 325 323 318 311 307 307 309 309 309 310 312 312 312 313 315 317 319 321 322 323 325 326 326 326 325 324 323 324 326 327 328 328 328 327 327 327 326 326 326 328 331 332 329 325 323 322 322 322 322 321 318
37 40 42 42 42 38 32 27 21 15 11 8 6 5 4 2 1 1 0 359 358 357 353 347 340 335 337 341 344 343 341 337 333 331 328 327 324 320 315 309 307 308 310 310 309 309 309 308 309 312 315 316 317 318 319 321 322 323 324 325 325 326 327 328 329 330 330 331 330 329 328 327 328 329 328 329 327 324 322 321 321 323 324 325 324 323
41 41 40 39 36 32 26 21 15 10 7 5 5 6 5 3 0 358 356 354 352 350 348 346 341 334 329 333 339 343 345 344 342 340 337 335 332 329 324 317 312 310 313 312 309 306 304 302 304 306 308 309 311 314 317 319 321 323 325 327 328 328 329 329 330 332 333 333 332 330 328 328 329 329 326 325 322 320 318 317 318 320 322 323 323 323
40 39 36 34 31 27 21 15 11 8 6 6 7 8 8 5 0 356 354 351 349 348 347 348 346 340 336 337 339 343 348 351 352 350 347 346 344 342 337 329 320 314 313 311 307 302 298 297 298 301 303 306 309 313 316 318 320 323 326 329 328 327 326 328 332 335 336 335 333 331 329 329 329 328 327 324 321 318 316 315 314 315 318 319 320 320
37 34 31 27 23 20 15 12 10 9 10 11 11 10 9 6 2 356 352 349 347 347 346 345 344 342 342 344 345 346 349 353 355 353 350 349 350 349 344 335 325 318 315 312 308 302 297 295 293 294 300 307 313 315 317 319 322 326 330 332 332 329 328 331 335 338 337 335 333 332 331 330 329 328 327 324 322 320 318 316 314 315 315 316 317 318
31 27 23 19 15 11 10 10 10 11 12 14 13 11 8 5 2 358 354 350 347 346 345 344 342 341 341 344 345 345 345 348 350 350 349 349 349 348 343 336 328 323 321 316 309 305 306 304 303 303 309 313 316 315 315 318 323 329 334 336 337 335 332 332 334 336 336 335 333 332 331 330 328 327 326 324 322 321 321 321 320 319 319 319 319 319
23 20 17 14 11 10 10 10 11 12 13 13 12 10 7 4 2 359 356 351 349 347 346 344 342 342 344 346 346 344 344 344 345 348 350 351 351 349 345 341 338 335 331 321 310 308 313 315 316 318 321 319 314 310 310 319 326 332 336 338 338 335 330 328 330 333 335 335 333 332 331 329 328 327 326 326 327 327 326 327 327 326 325 325 324 323
21 19 18 16 15 15 15 14 13 12 12 12 11 9 7 5 3 1 359 354 350 349 348 347 346 347 350 350 348 346 346 346 348 350 352 354 354 353 351 347 343 339 335 328 319 312 311 313 318 323 326 323 317 313 317 326 332 334 335 336 336 334 330 329 331 334 336 334 333 332 331 329 329 329 331 331 332 332 331 330 330 330 329 329 328 327
21 20 19 19 19 18 17 15 13 13 13 13 11 10 8 7 5 3 1 358 354 352 351 351 352 353 352 351 350 349 347 347 348 351 353 354 355 356 355 352 348 341 335 331 327 322 315 311 314 321 326 329 329 330 334 337 337 335 333 334 335 335 334 335 336 337 336 333 331 330 331 331 332 333 334 334 334 333 331 331 331 331 331 331 330 330
20 20 20 20 19 18 16 15 14 13 13 12 11 9 8 7 6 5 3 0 357 354 354 355 357 356 355 353 352 350 348 346 346 349 351 352 354 355 355 354 350 345 337 331 327 324 319 318 323 329 333 334 337 339 341 341 339 336 333 334 335 336 336 336 337 337 335 333 331 330 331 332 333 334 335 335 334 334 333 332 333 333 333 333 332 331
19 19 19 19 18 17 16 15 13 12 11 10 9 8 8 7 6 5 3 1 359 357 357 359 359 357 356 355 353 351 349 347 347 348 349 350 351 352 353 353 352 348 341 333 326 319 314 315 324 335 343 341 340 339 339 340 339 337 335 335 335 335 334 333 334 334 334 332 331 331 332 331 332 332 333 334 334 333 333 332 332 334 335 336 335 334
20 19 18 18 17 17 15 13 12 11 10 8 7 6 6 6 6 6 3 1 0 0 360 359 358 357 355 354 352 351 350 350 349 349 350 349 349 349 350 351 350 349 347 343 336 326 315 309 311 322 340 345 345 342 341 341 340 339 337 337 337 335 333 332 332 332 333 332 332 332 332 331 331 332 333 332 331 331 331 332 333 335 337 338 338 336
20 20 19 18 16 15 13 12 11 10 8 7 5 5 4 5 6 6 4 3 3 3 1 359 358 356 355 353 352 351 351 351 351 351 350 348 347 347 349 349 350 351 350 351 351 348 342 332 323 320 328 344 353 350 346 344 343 341 340 339 337 335 333 330 329 330 332 332 332 332 332 332 334 336 336 333 331 330 331 332 334 335 337 339 339 337
21 20 19 17 15 13 11 10 9 8 6 5 5 5 5 5 5 4 4 4 3 2 0 359 358 357 356 354 352 351 351 352 351 350 348 347 346 346 348 349 351 352 352 353 353 354 354 353 349 344 345 355 354 352 354 352 348 345 341 339 336 334 332 330 329 330 331 331 331 331 332 335 337 339 339 336 334 332 332 332 333 334 336 337 337 337